Simultaneous Nadir Overpasses (SNOs) Predictions

Prediction of SNOs between GOES-15 and METOP-B Satellite Orbit:

Table of predicted SNOs for the next 14.0 days since TLE Epoch: 3/3/2017
Index Date Time (GOES-15) GOES-15 Lat,Lon METOP-B Lat,Lon Distance(km) Time Diff (sec)
1 03/03/2017 18:30:30 0.04,-135.08 0.06,-135.04 5.15 80
2 03/06/2017 06:31:32 -0.03,-135.01 0.08,-134.65 41.48 80
3 03/07/2017 18:47:43 0.03,-134.95 0.96,-139.21 484.85 80
4 03/08/2017 18:29:44 0.03,-134.92 -0.15,-134.22 80.40 80
5 03/10/2017 06:46:04 -0.03,-134.87 -0.89,-138.81 448.90 80
6 03/11/2017 06:28:04 -0.03,-134.83 0.22,-133.82 116.42 80
7 03/12/2017 18:44:16 0.03,-134.77 0.81,-138.37 409.97 80
8 03/13/2017 18:26:16 0.03,-134.73 -0.30,-133.38 155.07 80
9 03/15/2017 06:42:37 -0.03,-134.68 -0.74,-137.98 374.97 80
10 03/16/2017 06:24:36 -0.03,-134.64 0.31,-132.97 189.84 80




NCC Satellite Simultaneous Nadir Overpasses (SNOs) Prediction Service
